M I D A S
Marine Information and Data Acquisition System
Tripno 725 of the Zeeleeuw from 2004-05-28 07:30:34 to 2004-05-28 13:58:28
Back to CruiseResearch ActivitiesStationsMapUnderway DataData graphs

EquipmentUnitsComments
TimeDGPSUTC
LatitudeDGPSDM.mWGS84
LongitudeDGPSDM.mWGS84
SpeedMeteo Stationm/sRelative wind speed
DirectionMeteo StationdegRelative wind direction
TemperatureMeteo Stationdeg CelciusAir temperature
PressureMeteo StationPaAtmospheric pressure
HumidityMeteo Station%Relative humidity
Missing or incorrect values are displayed as -999
Metereological data collected by the RV Zeeleeuw from 2004-05-28 07:30:34 to 2004-05-28 13:58:28
                                                                                    Next 1000 lines
Time Latitude Longitude Speed Direction Temperature Pressure Humidity
2004-05-28 07:30:47 51°9.118 2°34.795 3.5 227 12.8 102590 65
2004-05-28 07:30:54 51°9.121 2°34.788 3.3 236 12.8 102600 64
2004-05-28 07:30:59 51°9.123 2°34.782 3.3 234 12.8 102600 64
2004-05-28 07:31:04 51°9.124 2°34.777 2.9 236 12.8 102590 63
2004-05-28 07:31:10 51°9.126 2°34.771 3.3 233 12.8 102590 63
2004-05-28 07:31:14 51°9.127 2°34.767 2.7 233 12.8 102590 63
2004-05-28 07:31:19 51°9.129 2°34.762 2.9 240 12.8 102590 63
2004-05-28 07:31:23 51°9.13 2°34.758 3.1 234 12.8 102600 63
2004-05-28 07:31:29 51°9.131 2°34.752 2.8 241 12.8 102600 63
2004-05-28 07:31:34 51°9.133 2°34.747 2.6 244 12.8 102590 63
2004-05-28 07:31:43 51°9.135 2°34.738 3.8 241 12.8 102590 63
2004-05-28 07:31:50 51°9.137 2°34.731 2.4 254 12.8 102590 63
2004-05-28 07:31:52 51°9.137 2°34.729 3 239 12.8 102590 63
2004-05-28 07:31:59 51°9.139 2°34.722 2.3 253 12.8 102590 63
2004-05-28 07:32:04 51°9.14 2°34.717 2.8 249 12.8 102600 63
2004-05-28 07:32:09 51°9.141 2°34.712 2.9 250 12.8 102600 63
2004-05-28 07:32:14 51°9.142 2°34.707 2.9 248 12.8 102590 63
2004-05-28 07:32:19 51°9.143 2°34.702 3 244 12.8 102590 63
2004-05-28 07:32:23 51°9.144 2°34.698 3.3 246 12.8 102590 64
2004-05-28 07:32:28 51°9.145 2°34.693 2.7 249 12.8 102590 64
2004-05-28 07:32:34 51°9.146 2°34.687 2.7 246 12.8 102590 63
2004-05-28 07:32:40 51°9.147 2°34.681 2.6 248 12.8 102590 63
2004-05-28 07:32:42 51°9.147 2°34.679 2.5 256 12.8 102600 63
2004-05-28 07:32:50 51°9.149 2°34.671 2.8 255 12.8 102600 63
2004-05-28 07:32:53 51°9.15 2°34.668 2.1 254 12.8 102600 62
2004-05-28 07:33:00 51°9.151 2°34.661 2.3 255 12.8 102600 62
2004-05-28 07:33:04 51°9.152 2°34.657 2.6 255 12.8 102590 62
2004-05-28 07:33:08 51°9.153 2°34.653 1.5 257 12.8 102590 62
2004-05-28 07:33:14 51°9.154 2°34.647 2.7 256 12.8 102600 63
2004-05-28 07:33:19 51°9.155 2°34.642 2.8 255 12.8 102600 63
2004-05-28 07:33:24 51°9.156 2°34.637 3.1 257 12.8 102590 63
2004-05-28 07:33:30 51°9.156 2°34.631 3.2 258 12.8 102590 63
2004-05-28 07:33:34 51°9.157 2°34.627 3.3 256 12.9 102600 63
2004-05-28 07:33:39 51°9.157 2°34.622 2.8 256 12.9 102600 63
2004-05-28 07:33:44 51°9.158 2°34.617 3.4 249 12.8 102590 63
2004-05-28 07:33:50 51°9.159 2°34.612 2.8 254 12.8 102590 63
2004-05-28 07:33:54 51°9.159 2°34.608 2.5 252 12.8 102600 63
2004-05-28 07:33:59 51°9.159 2°34.603 2.2 254 12.8 102600 63
2004-05-28 07:34:03 51°9.159 2°34.599 3.2 256 12.9 102600 64
2004-05-28 07:34:10 51°9.159 2°34.593 3.8 259 12.9 102600 64
2004-05-28 07:34:14 51°9.159 2°34.589 3.3 260 12.8 102600 64
2004-05-28 07:34:20 51°9.159 2°34.584 3.8 262 12.8 102600 64
2004-05-28 07:34:22 51°9.158 2°34.582 3.9 262 12.8 102600 64
2004-05-28 07:34:30 51°9.158 2°34.574 3 259 12.8 102600 64
2004-05-28 07:34:34 51°9.158 2°34.57 3.3 260 12.9 102600 64
2004-05-28 07:34:39 51°9.157 2°34.565 3.5 252 12.9 102600 64
2004-05-28 07:34:43 51°9.157 2°34.561 3.1 255 12.8 102600 64
2004-05-28 07:34:49 51°9.156 2°34.555 3.4 257 12.8 102600 64
2004-05-28 07:34:54 51°9.156 2°34.55 3.4 257 12.9 102600 64
2004-05-28 07:35:03 51°9.155 2°34.541 4.1 265 12.8 102600 65
2004-05-28 07:35:10 51°9.154 2°34.534 4.7 275 12.8 102600 65
2004-05-28 07:35:14 51°9.153 2°34.53 4.5 271 12.9 102590 65
2004-05-28 07:35:19 51°9.153 2°34.524 4 277 12.9 102590 65
2004-05-28 07:35:24 51°9.152 2°34.519 4 273 12.9 102600 65
2004-05-28 07:35:30 51°9.151 2°34.513 4.5 272 12.9 102600 65
2004-05-28 07:35:32 51°9.151 2°34.511 3.9 272 12.9 102600 65
2004-05-28 07:35:39 51°9.15 2°34.503 4 272 12.9 102600 65
2004-05-28 07:35:44 51°9.149 2°34.498 4.1 269 12.9 102590 65
2004-05-28 07:35:50 51°9.148 2°34.492 4.1 264 12.9 102590 65
2004-05-28 07:35:54 51°9.147 2°34.488 4.2 265 12.8 102590 64
2004-05-28 07:35:59 51°9.146 2°34.482 4.4 266 12.8 102590 64
2004-05-28 07:36:02 51°9.146 2°34.479 4.2 277 12.8 102600 64
2004-05-28 07:36:10 51°9.144 2°34.471 4.5 267 12.8 102600 64
2004-05-28 07:36:14 51°9.143 2°34.467 4.5 268 12.8 102600 64
2004-05-28 07:36:16 51°9.143 2°34.464 4.4 272 12.8 102600 64
2004-05-28 07:36:28 51°9.141 2°34.451 4.5 275 12.8 102600 64
2004-05-28 07:36:34 51°9.14 2°34.445 3.9 267 12.8 102600 65
2004-05-28 07:36:38 51°9.139 2°34.441 4.3 265 12.8 102600 65
2004-05-28 07:36:43 51°9.138 2°34.435 4.8 269 12.9 102600 64
2004-05-28 07:36:48 51°9.137 2°34.43 4.6 268 12.9 102600 64
2004-05-28 07:36:53 51°9.136 2°34.424 4.3 265 12.9 102590 65
2004-05-28 07:36:58 51°9.136 2°34.419 5.2 267 12.9 102590 65
2004-05-28 07:37:03 51°9.135 2°34.413 4.7 265 12.9 102600 65
2004-05-28 07:37:08 51°9.134 2°34.408 4.2 268 12.9 102600 65
2004-05-28 07:37:14 51°9.133 2°34.402 4.5 266 12.9 102600 64
2004-05-28 07:37:18 51°9.132 2°34.397 4.6 265 12.9 102600 64
2004-05-28 07:37:22 51°9.131 2°34.393 4.1 265 12.9 102590 64
2004-05-28 07:37:34 51°9.129 2°34.38 4.3 266 12.9 102600 64
2004-05-28 07:37:41 51°9.128 2°34.373 4.4 274 12.9 102600 64
2004-05-28 07:37:46 51°9.127 2°34.367 5 275 12.8 102590 64
2004-05-28 07:37:51 51°9.126 2°34.362 5.3 269 12.8 102590 64
2004-05-28 07:37:56 51°9.125 2°34.356 4.6 268 12.8 102600 64
2004-05-28 07:38:08 51°9.123 2°34.344 4.5 264 12.8 102600 64
2004-05-28 07:38:13 51°9.122 2°34.338 4.1 262 12.9 102600 64
2004-05-28 07:38:19 51°9.121 2°34.332 4.1 265 12.9 102600 64
2004-05-28 07:38:23 51°9.12 2°34.327 3.8 272 12.9 102600 64
2004-05-28 07:38:28 51°9.119 2°34.322 4 270 12.9 102600 64
2004-05-28 07:38:33 51°9.119 2°34.316 4 266 12.9 102600 64
2004-05-28 07:38:39 51°9.117 2°34.309 3.9 266 12.9 102600 64
2004-05-28 07:38:43 51°9.117 2°34.304 4.4 267 12.9 102590 64
2004-05-28 07:38:46 51°9.116 2°34.301 4.2 274 12.9 102590 64
2004-05-28 07:38:54 51°9.115 2°34.292 4.3 269 12.9 102600 64
2004-05-28 07:38:58 51°9.114 2°34.287 3.6 276 12.9 102600 64
2004-05-28 07:39:02 51°9.113 2°34.282 4.1 276 12.9 102600 65
2004-05-28 07:39:06 51°9.112 2°34.277 4.1 280 12.9 102600 65
2004-05-28 07:39:13 51°9.111 2°34.269 3.6 281 12.9 102600 65
2004-05-28 07:39:19 51°9.11 2°34.261 3.9   12.9 102600 65
2004-05-28 07:39:23 51°9.109 2°34.257 3.5 279 12.9 102600 65
2004-05-28 07:39:28 51°9.108 2°34.25 4.5 284 12.9 102600 65
2004-05-28 07:39:32 51°9.107 2°34.245 4.9 289 13 102600 65
2004-05-28 07:39:39 51°9.106 2°34.237 4.5 284 13 102600 65
2004-05-28 07:39:44 51°9.105 2°34.231 3.9 285 13 102600 65
2004-05-28 07:39:48 51°9.104 2°34.226 4 284 13 102600 65
2004-05-28 07:39:52 51°9.103 2°34.221 4.7 283 13 102600 65
2004-05-28 07:39:59 51°9.101 2°34.212 3.6 282 13 102600 65
2004-05-28 07:40:02 51°9.101 2°34.208 3.8 276 13 102600 65
2004-05-28 07:40:06 51°9.1 2°34.203 4.5 282 13 102600 65
2004-05-28 07:40:12 51°9.099 2°34.195 4.1 280 13 102590 65
2004-05-28 07:40:18 51°9.098 2°34.188 4.2 284 13 102590 65
2004-05-28 07:40:23 51°9.096 2°34.182 4.3 286 13 102600 64
2004-05-28 07:40:28 51°9.095 2°34.175 5.2 279 13 102600 64
2004-05-28 07:40:32 51°9.095 2°34.17 4.9 273 13 102600 64
2004-05-28 07:40:38 51°9.093 2°34.163 4.9 268 13 102600 64
2004-05-28 07:40:42 51°9.092 2°34.158 4 273 13 102590 64
2004-05-28 07:40:46 51°9.091 2°34.153 4.6 269 13 102590 64
2004-05-28 07:40:54 51°9.089 2°34.143 4.8 266 13 102600 64
2004-05-28 07:40:59 51°9.088 2°34.136 5.3 274 13 102600 64
2004-05-28 07:41:03 51°9.087 2°34.131 5.3 265 13.1 102600 64
2004-05-28 07:41:08 51°9.086 2°34.125 4.5 276 13.1 102600 64
2004-05-28 07:41:13 51°9.084 2°34.119 5 285 13.1 102600 64
2004-05-28 07:41:18 51°9.083 2°34.113 4.5 280 13.1 102600 64
2004-05-28 07:41:22 51°9.082 2°34.108 5.1 278 13.1 102600 64
2004-05-28 07:41:28 51°9.08 2°34.1 5.3 275 13.1 102600 64
2004-05-28 07:41:31 51°9.08 2°34.097 4.8 278 13.1 102600 64
2004-05-28 07:41:46 51°9.076 2°34.078 4 276 13.1 102600 64
2004-05-28 07:41:50 51°9.075 2°34.073 4.2 267 13.1 102600 64
2004-05-28 07:41:55 51°9.074 2°34.067 4.3 271 13.1 102600 63
2004-05-28 07:41:58 51°9.074 2°34.063 4.2 271 13.1 102600 63
2004-05-28 07:42:03 51°9.073 2°34.056 4.6 264 13.1 102590 63
2004-05-28 07:42:10 51°9.071 2°34.048 4.4 265 13.1 102590 63
2004-05-28 07:42:16 51°9.07 2°34.04 4.6 266 13.1 102590 63
2004-05-28 07:42:20 51°9.069 2°34.035 4.3 274 13.1 102590 63
2004-05-28 07:42:26 51°9.068 2°34.028 4.5 272 13.1 102600 63
2004-05-28 07:42:31 51°9.067 2°34.022 4.5 271 13.1 102600 63
2004-05-28 07:42:35 51°9.066 2°34.017 5.3 267 13.1 102600 63
2004-05-28 07:42:40 51°9.066 2°34.011 4.8 271 13.1 102600 63
2004-05-28 07:42:46 51°9.064 2°34.004 5 266 13.1 102600 63
2004-05-28 07:42:47 51°9.064 2°34.002 5.2 271 13.1 102600 63
2004-05-28 07:42:55 51°9.063 2°33.993 4.1 273 13.1 102600 64
2004-05-28 07:43:00 51°9.062 2°33.987 4.4 274 13.1 102600 64
2004-05-28 07:43:05 51°9.06 2°33.981 4.4 274 13.1 102600 64
2004-05-28 07:43:10 51°9.059 2°33.975 4.4 273 13.1 102600 64
2004-05-28 07:43:15 51°9.058 2°33.969 4.5 271 13.1 102600 63
2004-05-28 07:43:20 51°9.057 2°33.963 5.1 270 13.1 102600 63
2004-05-28 07:43:25 51°9.056 2°33.957 3.9 266 13.1 102600 63
2004-05-28 07:43:31 51°9.055 2°33.95 3.5 271 13.1 102600 63
2004-05-28 07:43:35 51°9.054 2°33.945 4 275 13.1 102600 63
2004-05-28 07:43:40 51°9.053 2°33.939 4.5 284 13.1 102600 63
2004-05-28 07:43:44 51°9.052 2°33.934 3.7 281 13.1 102600 63
2004-05-28 07:43:50 51°9.051 2°33.927 3.7 279 13.1 102600 63
2004-05-28 07:43:54 51°9.05 2°33.922 4.4 270 13.1 102590 62
2004-05-28 07:44:00 51°9.049 2°33.915 4.7 274 13.1 102590 62
2004-05-28 07:44:05 51°9.047 2°33.909 4.3 282 13.1 102600 63
2004-05-28 07:44:11 51°9.046 2°33.902 4.7 274 13.1 102600 63
2004-05-28 07:44:15 51°9.045 2°33.897 4.4 274 13.2 102590 63
2004-05-28 07:44:21 51°9.044 2°33.89 4.1 273 13.2 102590 63
2004-05-28 07:44:26 51°9.043 2°33.884 3.6 277 13.1 102600 63
2004-05-28 07:44:30 51°9.043 2°33.879 4.9 270 13.1 102600 63
2004-05-28 07:44:35 51°9.042 2°33.873 3.8 276 13.1 102600 63
2004-05-28 07:44:39 51°9.041 2°33.868 4 273 13.1 102600 63
2004-05-28 07:44:46 51°9.039 2°33.859 3.5 276 13.1 102600 62
2004-05-28 07:44:50 51°9.038 2°33.855 3.9 268 13.1 102600 62
2004-05-28 07:44:54 51°9.038 2°33.85 3.6 276 13.1 102600 62
2004-05-28 07:45:00 51°9.036 2°33.843 3.6 275 13.1 102600 62
2004-05-28 07:45:06 51°9.035 2°33.835 4 279 13.1 102600 62
2004-05-28 07:45:11 51°9.034 2°33.829 4.1 278 13.1 102600 62
2004-05-28 07:45:14 51°9.034 2°33.826 3.6 276 13.2 102600 63
2004-05-28 07:45:27 51°9.031 2°33.81 3.9 275 13.2 102600 63
2004-05-28 07:45:32 51°9.03 2°33.804 3.8 279 13.2 102600 63
2004-05-28 07:45:38 51°9.029 2°33.797 4.1 276 13.2 102600 63
2004-05-28 07:45:48 51°9.027 2°33.785 4.2 271 13.2 102600 63
2004-05-28 07:45:53 51°9.026 2°33.779 3.1 259 13.2 102600 63
2004-05-28 07:45:59 51°9.025 2°33.772 4.1 264 13.2 102600 63
2004-05-28 07:46:03 51°9.024 2°33.767 3.7 269 13.2 102600 63
2004-05-28 07:46:08 51°9.024 2°33.761 3.2 272 13.2 102600 63
2004-05-28 07:46:13 51°9.023 2°33.755 3.5 270 13.2 102600 63
2004-05-28 07:46:18 51°9.021 2°33.749 3.3 280 13.2 102600 63
2004-05-28 07:46:23 51°9.021 2°33.742 3.5 269 13.3 102600 63
2004-05-28 07:46:28 51°9.02 2°33.736 3 268 13.3 102600 63
2004-05-28 07:46:33 51°9.019 2°33.731 3.9 276 13.3 102600 64
2004-05-28 07:46:39 51°9.018 2°33.724 3.8 276 13.3 102600 64
2004-05-28 07:46:44 51°9.017 2°33.718 4 276 13.3 102600 64
2004-05-28 07:46:46 51°9.016 2°33.716 4.3 282 13.3 102600 64
2004-05-28 07:46:52 51°9.015 2°33.709 3.9 283 13.3 102600 64
2004-05-28 07:46:58 51°9.013 2°33.702 4.2 282 13.3 102600 64
2004-05-28 07:47:03 51°9.012 2°33.696 3.6 285 13.3 102600 64
2004-05-28 07:47:08 51°9.011 2°33.691 3.6 281 13.3 102600 64
2004-05-28 07:47:12 51°9.01 2°33.687 3.6 283 13.3 102600 65
2004-05-28 07:47:18 51°9.009 2°33.68 3.7 282 13.3 102600 65
2004-05-28 07:47:22 51°9.008 2°33.676 3.6 282 13.3 102600 64
2004-05-28 07:47:26 51°9.007 2°33.672 3.9 283 13.3 102600 64
2004-05-28 07:47:33 51°9.005 2°33.664 3.8 283 13.3 102600 63
2004-05-28 07:47:38 51°9.003 2°33.659 3.7 281 13.3 102600 63
2004-05-28 07:47:43 51°9.002 2°33.654 3.4 287 13.3 102600 63
2004-05-28 07:47:47 51°9 2°33.649 3.6 289 13.3 102600 63
2004-05-28 07:47:53 51°8.999 2°33.643 3.7 282 13.3 102600 63
2004-05-28 07:47:58 51°8.997 2°33.638 3.9 283 13.3 102600 63
2004-05-28 07:48:03 51°8.995 2°33.632 3.8 283 13.3 102600 63
2004-05-28 07:48:06 51°8.994 2°33.629 4 284 13.3 102600 63
2004-05-28 07:48:14 51°8.991 2°33.621 3.6 281 13.3 102600 63
2004-05-28 07:48:16 51°8.991 2°33.619 3.2 279 13.3 102600 63
2004-05-28 07:48:23 51°8.988 2°33.611 3.4 278 13.3 102600 62
2004-05-28 07:48:28 51°8.987 2°33.606 3.8 276 13.3 102600 62
2004-05-28 07:48:30 51°8.986 2°33.604 4.4 275 13.3 102600 62
2004-05-28 07:48:39 51°8.983 2°33.594 3.7 282 13.3 102600 62
2004-05-28 07:48:44 51°8.982 2°33.589 3.9 282 13.3 102610 62
2004-05-28 07:48:47 51°8.981 2°33.586 3.6 279 13.3 102610 62
2004-05-28 07:48:53 51°8.979 2°33.58 4.1 275 13.3 102600 62
2004-05-28 07:48:59 51°8.977 2°33.573 3.8 278 13.3 102600 62
2004-05-28 07:49:03 51°8.975 2°33.569 3.9 276 13.3 102610 62
2004-05-28 07:49:08 51°8.973 2°33.564 4.1 273 13.3 102610 62
2004-05-28 07:49:13 51°8.972 2°33.558 3.9 271 13.3 102610 62
2004-05-28 07:49:19 51°8.97 2°33.552 4 279 13.3 102610 62
2004-05-28 07:49:22 51°8.969 2°33.549 3.3 273 13.3 102600 62
2004-05-28 07:49:28 51°8.967 2°33.542 3.5 280 13.3 102600 62
2004-05-28 07:49:34 51°8.965 2°33.536 3.4 279 13.3 102600 62
2004-05-28 07:49:36 51°8.964 2°33.534 3.6 288 13.3 102600 62
2004-05-28 07:49:48 51°8.96 2°33.521 4.4 275 13.3 102600 62
2004-05-28 07:49:53 51°8.958 2°33.516 3.8 278 13.3 102600 63
2004-05-28 07:49:58 51°8.957 2°33.511 3.6 277 13.3 102600 63
2004-05-28 07:50:02 51°8.955 2°33.506 3.8 279 13.3 102610 63
2004-05-28 07:50:08 51°8.954 2°33.5 4 281 13.3 102610 63
2004-05-28 07:50:14 51°8.952 2°33.493 4.1 284 13.3 102600 63
2004-05-28 07:50:18 51°8.95 2°33.489 4.2 281 13.3 102600 63
2004-05-28 07:50:23 51°8.949 2°33.483 4.5 284 13.3 102610 63
2004-05-28 07:50:28 51°8.947 2°33.478 4.4 284 13.3 102610 63
2004-05-28 07:50:33 51°8.945 2°33.473 3.9 282 13.3 102600 63
2004-05-28 07:50:39 51°8.943 2°33.466 3.6 281 13.3 102600 63
2004-05-28 07:50:43 51°8.942 2°33.462 4 280 13.3 102610 62
2004-05-28 07:50:48 51°8.941 2°33.457 4 279 13.3 102610 62
2004-05-28 07:50:53 51°8.939 2°33.451 3.8 275 13.3 102600 63
2004-05-28 07:50:58 51°8.937 2°33.446 3.5 285 13.3 102600 63
2004-05-28 07:51:03 51°8.936 2°33.44 4.7 276 13.3 102600 62
2004-05-28 07:51:08 51°8.934 2°33.435 3.5 272 13.3 102600 62
2004-05-28 07:51:13 51°8.933 2°33.429 4.3 272 13.3 102610 62
2004-05-28 07:51:19 51°8.931 2°33.422 4 272 13.3 102610 62
2004-05-28 07:51:24 51°8.929 2°33.417 4.5 268 13.3 102600 62
2004-05-28 07:51:26 51°8.929 2°33.414 3.8 268 13.3 102600 62
2004-05-28 07:51:32 51°8.927 2°33.407 3.7 271 13.3 102610 62
2004-05-28 07:51:38 51°8.925 2°33.401 3.7 280 13.3 102610 62
2004-05-28 07:51:43 51°8.924 2°33.395 3.8 276 13.3 102610 62
2004-05-28 07:51:48 51°8.922 2°33.39 3.6 281 13.3 102610 62
2004-05-28 07:51:52 51°8.921 2°33.386 4 279 13.3 102600 62
2004-05-28 07:51:58 51°8.919 2°33.379 3.9 277 13.3 102600 62
2004-05-28 07:52:02 51°8.918 2°33.375 4.2 276 13.3 102600 62
2004-05-28 07:52:06 51°8.917 2°33.37 4 273 13.3 102600 62
2004-05-28 07:52:13 51°8.915 2°33.363 4.1 273 13.3 102610 63
2004-05-28 07:52:18 51°8.913 2°33.357 4.1 275 13.3 102610 63
2004-05-28 07:52:23 51°8.912 2°33.351 3.5 275 13.4 102610 63
2004-05-28 07:52:27 51°8.91 2°33.347 3.4 271 13.4 102610 63
2004-05-28 07:52:34 51°8.908 2°33.339 3.8 271 13.3 102610 63
2004-05-28 07:52:38 51°8.907 2°33.334 3.4 274 13.3 102610 63
2004-05-28 07:52:43 51°8.906 2°33.329 3.3 282 13.3 102610 62
2004-05-28 07:52:46 51°8.904 2°33.325 2.6 277 13.3 102610 62
2004-05-28 07:52:54 51°8.902 2°33.316 3.5 281 13.4 102600 62
2004-05-28 07:52:56 51°8.901 2°33.314 3.3 278 13.4 102600 62
2004-05-28 07:53:03 51°8.899 2°33.306 3.3 281 13.4 102610 63
2004-05-28 07:53:08 51°8.897 2°33.3 3.2 272 13.4 102610 63
2004-05-28 07:53:10 51°8.897 2°33.299 3 274 13.4 102610 63
2004-05-28 07:53:19 51°8.894 2°33.288 3.9 276 13.4 102610 63
2004-05-28 07:53:24 51°8.892 2°33.283 3.8 284 13.4 102610 63
2004-05-28 07:53:27 51°8.892 2°33.28 3.6 282 13.4 102610 63
2004-05-28 07:53:33 51°8.89 2°33.273 3.5 284 13.4 102610 64
2004-05-28 07:53:39 51°8.888 2°33.266 3.3 279 13.4 102610 64
2004-05-28 07:53:44 51°8.886 2°33.261 4.2 279 13.4 102610 64
2004-05-28 07:53:47 51°8.885 2°33.257 3.8 291 13.4 102610 64
2004-05-28 07:53:53 51°8.883 2°33.25 3.4 285 13.4 102610 64
2004-05-28 07:53:59 51°8.882 2°33.243 3.6 274 13.4 102610 64
2004-05-28 07:54:02 51°8.88 2°33.24 3.1 282 13.4 102610 64
2004-05-28 07:54:08 51°8.879 2°33.233 3.1 278 13.4 102610 64
2004-05-28 07:54:14 51°8.877 2°33.227 3.5 279 13.4 102610 64
2004-05-28 07:54:16 51°8.876 2°33.224 4.2 278 13.4 102610 64
2004-05-28 07:54:27 51°8.872 2°33.211 4.4 281 13.4 102610 64
2004-05-28 07:54:32 51°8.87 2°33.205 4 299 13.5 102600 65
2004-05-28 07:54:38 51°8.868 2°33.198 3.8 297 13.5 102600 65
2004-05-28 07:54:43 51°8.867 2°33.192 4.6 295 13.5 102610 64
2004-05-28 07:54:48 51°8.865 2°33.187 4.5 290 13.5 102610 64
2004-05-28 07:54:54 51°8.863 2°33.181 4.3 290 13.5 102610 64
2004-05-28 07:54:58 51°8.862 2°33.176 4.7 293 13.5 102610 64
2004-05-28 07:55:03 51°8.86 2°33.17 4.9 287 13.5 102610 64
2004-05-28 07:55:08 51°8.859 2°33.164 5 296 13.5 102610 64
2004-05-28 07:55:13 51°8.857 2°33.158 4.7 294 13.5 102610 63
2004-05-28 07:55:19 51°8.855 2°33.152 4 287 13.5 102610 63
2004-05-28 07:55:23 51°8.854 2°33.147 3.9 287 13.5 102600 63
2004-05-28 07:55:27 51°8.853 2°33.142 4.2 297 13.5 102600 63
2004-05-28 07:55:33 51°8.851 2°33.135 4.3 295 13.5 102610 62
2004-05-28 07:55:38 51°8.849 2°33.13 4.1 292 13.5 102610 62
2004-05-28 07:55:43 51°8.848 2°33.124 4 292 13.5 102610 62
2004-05-28 07:55:46 51°8.847 2°33.121 3.9 291 13.5 102610 62
2004-05-28 07:55:54 51°8.844 2°33.112 3.7 292 13.5 102610 61
2004-05-28 07:55:55 51°8.844 2°33.11 4.1 301 13.5 102610 61
2004-05-28 07:56:03 51°8.841 2°33.101 4.1 296 13.5 102600 61
2004-05-28 07:56:08 51°8.84 2°33.095 4 292 13.5 102600 61
2004-05-28 07:56:13 51°8.838 2°33.089 4.1 288 13.5 102610 61
2004-05-28 07:56:19 51°8.837 2°33.083 3.8 289 13.5 102610 61
2004-05-28 07:56:24 51°8.835 2°33.077 4.4 293 13.5 102610 62
2004-05-28 07:56:28 51°8.834 2°33.072 4.4 295 13.5 102610 62
2004-05-28 07:56:34 51°8.832 2°33.065 4.4 296 13.6 102600 62
2004-05-28 07:56:39 51°8.831 2°33.059 4.6 295 13.6 102600 62
2004-05-28 07:56:42 51°8.83 2°33.055 4.2 293 13.6 102610 62
2004-05-28 07:56:48 51°8.828 2°33.048 4.3 292 13.6 102610 62
2004-05-28 07:56:54 51°8.826 2°33.041 4 291 13.6 102610 62
2004-05-28 07:56:56 51°8.825 2°33.039 4.6 293 13.6 102610 62
2004-05-28 07:57:08 51°8.822 2°33.024 4.7 296 13.6 102610 62
2004-05-28 07:57:13 51°8.82 2°33.018 5.1 296 13.6 102610 61
2004-05-28 07:57:18 51°8.819 2°33.012 4.7 296 13.6 102610 61
2004-05-28 07:57:22 51°8.817 2°33.007 4.9 295 13.6 102610 61
2004-05-28 07:57:28 51°8.816 2°33 4.5 296 13.6 102610 61
2004-05-28 07:57:33 51°8.814 2°32.994 4.3 293 13.6 102610 60
2004-05-28 07:57:39 51°8.813 2°32.987 4.2 295 13.6 102610 60
2004-05-28 07:57:43 51°8.812 2°32.982 4.3 294 13.6 102600 60
2004-05-28 07:57:48 51°8.811 2°32.976 4.4 282 13.6 102600 60
2004-05-28 07:57:53 51°8.81 2°32.97 3.8 276 13.6 102610 60
2004-05-28 07:57:59 51°8.809 2°32.962 4.5 272 13.6 102610 60
2004-05-28 07:58:03 51°8.809 2°32.956 4.3 274 13.6 102610 60
2004-05-28 07:58:08 51°8.809 2°32.949 4.2 268 13.6 102610 60
2004-05-28 07:58:14 51°8.81 2°32.941 3.3 263 13.6 102610 60
2004-05-28 07:58:18 51°8.81 2°32.936 2.5 254 13.6 102610 60
2004-05-28 07:58:22 51°8.811 2°32.93 3.1 260 13.6 102610 60
2004-05-28 07:58:28 51°8.813 2°32.922 2.5 256 13.6 102610 60
2004-05-28 07:58:34 51°8.814 2°32.914 2.1 256 13.6 102610 60
2004-05-28 07:58:37 51°8.815 2°32.91 2.2 252 13.6 102610 60
2004-05-28 07:58:42 51°8.817 2°32.903 2.3 244 13.6 102610 60
2004-05-28 07:58:49 51°8.82 2°32.894 2.5 241 13.6 102610 60
2004-05-28 07:58:52 51°8.822 2°32.891 2.2 233 13.6 102610 60
2004-05-28 07:58:59 51°8.826 2°32.882 1.7 226 13.6 102610 60
2004-05-28 07:59:04 51°8.829 2°32.876 1.8 224 13.6 102610 60
2004-05-28 07:59:08 51°8.831 2°32.872 1.8 221 13.6 102600 59
2004-05-28 07:59:12 51°8.834 2°32.868 1.5 215 13.6 102600 59
2004-05-28 07:59:18 51°8.838 2°32.862 1.6 203 13.6 102610 60
2004-05-28 07:59:22 51°8.841 2°32.858 1.6 211 13.6 102610 60
2004-05-28 07:59:26 51°8.844 2°32.855 1.4 189 13.6 102610 60
2004-05-28 07:59:34 51°8.85 2°32.849 2.1 169 13.6 102610 60
2004-05-28 07:59:39 51°8.854 2°32.846 2.2 173 13.6 102610 60
2004-05-28 07:59:44 51°8.858 2°32.843 1.4 164 13.6 102610 60
2004-05-28 07:59:49 51°8.861 2°32.84 2.6 166 13.6 102610 60
2004-05-28 07:59:53 51°8.864 2°32.838 2.4 166 13.6 102610 60
2004-05-28 07:59:58 51°8.868 2°32.836 2.5 164 13.7 102610 61
2004-05-28 08:00:04 51°8.872 2°32.834 2.6 172 13.7 102610 61
2004-05-28 08:00:08 51°8.875 2°32.832 2.6 169 13.7 102610 60
2004-05-28 08:00:13 51°8.878 2°32.83 1.9 171 13.7 102610 60
2004-05-28 08:00:19 51°8.883 2°32.828 2.4 173 13.7 102610 60
2004-05-28 08:00:24 51°8.886 2°32.826 2.7 165 13.7 102610 60
2004-05-28 08:00:26 51°8.887 2°32.826 2.1 167 13.7 102610 60
2004-05-28 08:00:34 51°8.893 2°32.823 2.2 163 13.7 102610 60
2004-05-28 08:00:39 51°8.896 2°32.822 2.5 168 13.7 102610 59
2004-05-28 08:00:44 51°8.899 2°32.821 2.6 162 13.7 102610 59
2004-05-28 08:00:48 51°8.902 2°32.82 2.9 164 13.7 102610 59
2004-05-28 08:00:53 51°8.905 2°32.819 2.8 153 13.7 102610 60
2004-05-28 08:00:58 51°8.908 2°32.818 2.8 150 13.7 102610 60
2004-05-28 08:01:04 51°8.912 2°32.818 2.7 152 13.7 102610 60
2004-05-28 08:01:08 51°8.915 2°32.817 2.6 157 13.7 102610 60
2004-05-28 08:01:14 51°8.919 2°32.816 3.2 155 13.7 102610 60
2004-05-28 08:01:19 51°8.922 2°32.816 3.3 156 13.7 102610 60
2004-05-28 08:01:23 51°8.924 2°32.815 3.2 156 13.7 102610 60
2004-05-28 08:01:28 51°8.927 2°32.814 3 155 13.7 102610 61
2004-05-28 08:01:34 51°8.931 2°32.814 3.4 160 13.7 102610 61
2004-05-28 08:01:38 51°8.933 2°32.813 2.8 161 13.7 102610 60
2004-05-28 08:01:44 51°8.936 2°32.812 2.8 161 13.7 102610 60
2004-05-28 08:01:48 51°8.939 2°32.812 2.9 161 13.7 102610 59
2004-05-28 08:01:54 51°8.942 2°32.811 3 157 13.7 102610 59
2004-05-28 08:01:58 51°8.944 2°32.81 2.7 156 13.7 102610 59
2004-05-28 08:02:04 51°8.947 2°32.809 2.7 168 13.7 102610 59
2004-05-28 08:02:08 51°8.949 2°32.808 3.2 162 13.7 102600 59
2004-05-28 08:02:14 51°8.952 2°32.808 2.9 163 13.7 102600 59
2004-05-28 08:02:18 51°8.955 2°32.807 2.7 161 13.6 102610 58
2004-05-28 08:02:23 51°8.957 2°32.806 2.7 159 13.6 102610 58
2004-05-28 08:02:28 51°8.96 2°32.806 2.7 155 13.6 102610 59
2004-05-28 08:02:34 51°8.963 2°32.805 2.7 161 13.6 102610 59
2004-05-28 08:02:38 51°8.965 2°32.805 3.4 164 13.6 102610 59
2004-05-28 08:02:44 51°8.968 2°32.804 3.1 168 13.6 102610 59
2004-05-28 08:02:48 51°8.97 2°32.804 2.7 163 13.6 102610 59
2004-05-28 08:02:54 51°8.973 2°32.803 2.8 161 13.6 102610 59
2004-05-28 08:02:58 51°8.975 2°32.803 2.5 150 13.6 102610 60
2004-05-28 08:03:02 51°8.977 2°32.803 3.2 157 13.6 102610 60
2004-05-28 08:03:08 51°8.98 2°32.802 3.3 151 13.6 102610 60
2004-05-28 08:03:14 51°8.982 2°32.802 3 152 13.6 102610 60
2004-05-28 08:03:19 51°8.985 2°32.802 3.2 152 13.6 102610 60
2004-05-28 08:03:24 51°8.987 2°32.802 3.2 141 13.6 102610 60
2004-05-28 08:03:28 51°8.989 2°32.802 3 140 13.6 102610 60
2004-05-28 08:03:34 51°8.993 2°32.802 3.2 133 13.6 102610 60
2004-05-28 08:03:38 51°8.995 2°32.802 3.4 127 13.6 102610 60
2004-05-28 08:03:43 51°8.998 2°32.802 3.2 117 13.6 102610 60
2004-05-28 08:03:48 51°9.002 2°32.803 3.6 110 13.6 102610 60
2004-05-28 08:03:54 51°9.006 2°32.805 3.4 108 13.6 102610 60
2004-05-28 08:03:58 51°9.009 2°32.806 3.7 107 13.6 102610 61
2004-05-28 08:04:04 51°9.014 2°32.809 3.8 101 13.6 102610 61
2004-05-28 08:04:08 51°9.017 2°32.812 3.7 98 13.6 102610 61
2004-05-28 08:04:13 51°9.021 2°32.815 3.9 90 13.6 102610 62
2004-05-28 08:04:19 51°9.025 2°32.82 4.4 85 13.6 102610 62
2004-05-28 08:04:24 51°9.029 2°32.825 3.9 80 13.6 102610 62
2004-05-28 08:04:28 51°9.031 2°32.829 3.2 77 13.6 102610 62
2004-05-28 08:04:34 51°9.035 2°32.836 3.5 71 13.6 102610 62
2004-05-28 08:04:38 51°9.037 2°32.841 3.7 71 13.6 102610 61
2004-05-28 08:04:43 51°9.04 2°32.847 3.5 71 13.6 102610 61
2004-05-28 08:04:48 51°9.043 2°32.854 3.9 65 13.6 102610 60
2004-05-28 08:04:54 51°9.046 2°32.862 4.1 63 13.6 102610 60
2004-05-28 08:04:58 51°9.049 2°32.868 4 62 13.5 102610 61
2004-05-28 08:05:02 51°9.051 2°32.874 3.6 72 13.5 102610 61
2004-05-28 08:05:07 51°9.054 2°32.881 3.7 69 13.5 102610 61
2004-05-28 08:05:13 51°9.057 2°32.89 3.8 68 13.5 102610 61
2004-05-28 08:05:18 51°9.06 2°32.897 4 65 13.5 102610 61
2004-05-28 08:05:22 51°9.062 2°32.902 3.2 77 13.5 102610 61
2004-05-28 08:05:28 51°9.065 2°32.911 3.9 79 13.5 102600 62
2004-05-28 08:05:34 51°9.068 2°32.919 3.6 75 13.5 102600 62
2004-05-28 08:05:38 51°9.07 2°32.925 4.3 74 13.5 102610 61
2004-05-28 08:05:44 51°9.073 2°32.933 4.1 73 13.5 102610 61
2004-05-28 08:05:48 51°9.075 2°32.939 4.4 64 13.5 102600 62
2004-05-28 08:05:54 51°9.078 2°32.947 4.2 65 13.5 102610 62
2004-05-28 08:05:59 51°9.08 2°32.955 5.2 64 13.5 102610 62
2004-05-28 08:06:03 51°9.082 2°32.961 5.3 56 13.5 102610 61
2004-05-28 08:06:07 51°9.083 2°32.966 5.1 55 13.5 102610 61
2004-05-28 08:06:14 51°9.086 2°32.977 5.3 54 13.5 102610 62
2004-05-28 08:06:18 51°9.087 2°32.983 5.5 55 13.5 102610 62
2004-05-28 08:06:24 51°9.089 2°32.991 5.5 53 13.5 102610 62
2004-05-28 08:06:28 51°9.09 2°32.998 5.5 51 13.5 102600 63
2004-05-28 08:06:33 51°9.092 2°33.005 5.5 50 13.5 102600 62
2004-05-28 08:06:39 51°9.094 2°33.014 4.8 44 13.5 102600 62
2004-05-28 08:06:43 51°9.094 2°33.02 4.9 43 13.5 102600 62
2004-05-28 08:06:48 51°9.096 2°33.028 5.1 40 13.5 102600 62
2004-05-28 08:06:54 51°9.097 2°33.037 5.3 35 13.5 102600 63
2004-05-28 08:06:58 51°9.098 2°33.043 5.3 30 13.5 102600 63
2004-05-28 08:07:02 51°9.098 2°33.049 5.5 32 13.5 102600 63
2004-05-28 08:07:08 51°9.099 2°33.058 5.3 34 13.5 102600 63
2004-05-28 08:07:14 51°9.1 2°33.068 5.6 34 13.5 102600 63
2004-05-28 08:07:18 51°9.1 2°33.074 5.6 32 13.5 102600 63
2004-05-28 08:07:22 51°9.1 2°33.08 4.9 35 13.5 102600 63
2004-05-28 08:07:28 51°9.101 2°33.089 5 31 13.4 102600 63
2004-05-28 08:07:34 51°9.101 2°33.098 5 26 13.4 102600 62
2004-05-28 08:07:38 51°9.101 2°33.104 5 21 13.4 102600 62
2004-05-28 08:07:43 51°9.101 2°33.112 4.7 25 13.4 102600 62
2004-05-28 08:07:46 51°9.101 2°33.117 4.5 22 13.4 102600 62
2004-05-28 08:07:54 51°9.101 2°33.129 4.5 23 13.4 102600 62
2004-05-28 08:07:59 51°9.101 2°33.136 4.8 24 13.4 102600 61
2004-05-28 08:08:04 51°9.101 2°33.144 5 29 13.4 102600 61
2004-05-28 08:08:08 51°9.1 2°33.15 4.5 26 13.4 102600 61
2004-05-28 08:08:14 51°9.1 2°33.159 4.9 28 13.4 102600 61
2004-05-28 08:08:18 51°9.1 2°33.165 4.7 23 13.4 102600 61
2004-05-28 08:08:24 51°9.099 2°33.175 5 25 13.4 102600 61
2004-05-28 08:08:28 51°9.099 2°33.181 5.1 26 13.4 102600 62
2004-05-28 08:08:34 51°9.099 2°33.19 5.1 31 13.4 102600 62
2004-05-28 08:08:39 51°9.098 2°33.198 4.9 33 13.5 102600 62
2004-05-28 08:08:44 51°9.098 2°33.206 4.8 27 13.5 102600 62
2004-05-28 08:08:48 51°9.098 2°33.212 5 28 13.5 102600 62
2004-05-28 08:08:54 51°9.097 2°33.221 5 28 13.5 102600 62
2004-05-28 08:08:58 51°9.097 2°33.227 4.7 31 13.5 102600 62
2004-05-28 08:09:04 51°9.096 2°33.237 4.8 28 13.5 102600 62
2004-05-28 08:09:08 51°9.096 2°33.243 5.4 30 13.5 102610 62
2004-05-28 08:09:14 51°9.095 2°33.252 5.5 28 13.5 102610 62
2004-05-28 08:09:18 51°9.095 2°33.258 5 31 13.5 102610 62
2004-05-28 08:09:23 51°9.095 2°33.266 4.6 29 13.5 102600 61
2004-05-28 08:09:27 51°9.094 2°33.272 4.8 32 13.5 102600 61
2004-05-28 08:09:34 51°9.094 2°33.283 5.5 33 13.5 102600 61
2004-05-28 08:09:39 51°9.094 2°33.291 5.2 31 13.5 102600 61
2004-05-28 08:09:44 51°9.093 2°33.299 5.4 27 13.5 102600 61
2004-05-28 08:09:48 51°9.093 2°33.305 5.2 34 13.5 102600 60
2004-05-28 08:09:50 51°9.093 2°33.308 5.3 29 13.5 102600 60
2004-05-28 08:09:58 51°9.093 2°33.321 5.5 33 13.5 102600 61
2004-05-28 08:10:03 51°9.093 2°33.329 5.3 30 13.5 102600 61
2004-05-28 08:10:08 51°9.093 2°33.337 4.9 31 13.5 102600 61
2004-05-28 08:10:14 51°9.093 2°33.346 4.9 32 13.5 102600 61
2004-05-28 08:10:18 51°9.092 2°33.352 5.1 24 13.5 102600 61
2004-05-28 08:10:24 51°9.092 2°33.362 5.1 26 13.5 102600 61
2004-05-28 08:10:28 51°9.092 2°33.368 5.3 26 13.5 102600 61
2004-05-28 08:10:32 51°9.092 2°33.375 5.1 24 13.5 102600 61
2004-05-28 08:10:38 51°9.092 2°33.384 4.7 26 13.5 102600 62
2004-05-28 08:10:43 51°9.092 2°33.392 4.8 22 13.5 102600 62
2004-05-28 08:10:48 51°9.092 2°33.4 5.1 21 13.5 102600 63
2004-05-28 08:10:54 51°9.091 2°33.41 5.2 22 13.5 102600 63
2004-05-28 08:10:59 51°9.091 2°33.418 4.7 29 13.5 102600 62
2004-05-28 08:11:03 51°9.092 2°33.424 4.4 27 13.5 102600 61
2004-05-28 08:11:06 51°9.092 2°33.429 4.9 26 13.5 102600 61
2004-05-28 08:11:13 51°9.092 2°33.44 5.4 25 13.5 102600 61
2004-05-28 08:11:18 51°9.092 2°33.448 4.8 24 13.5 102600 62
2004-05-28 08:11:24 51°9.093 2°33.458 5.2 24 13.5 102600 62
2004-05-28 08:11:28 51°9.093 2°33.464 5.2 29 13.6 102600 62
2004-05-28 08:11:34 51°9.094 2°33.474 4.9 27 13.6 102610 61
2004-05-28 08:11:39 51°9.095 2°33.482 5.1 28 13.6 102610 61
2004-05-28 08:11:42 51°9.095 2°33.487 4.8 31 13.6 102610 61
2004-05-28 08:11:48 51°9.096 2°33.497 4.7 32 13.5 102610 61
2004-05-28 08:11:54 51°9.097 2°33.506 4.5 31 13.5 102610 61
2004-05-28 08:11:59 51°9.098 2°33.515 4.9 33 13.5 102600 60
2004-05-28 08:12:04 51°9.098 2°33.523 4.6 30 13.5 102600 60
2004-05-28 08:12:08 51°9.099 2°33.53 4.4 33 13.5 102600 60
2004-05-28 08:12:14 51°9.1 2°33.54 4.4 29 13.5 102600 60
2004-05-28 08:12:18 51°9.101 2°33.546 4.8 32 13.5 102600 60
2004-05-28 08:12:23 51°9.101 2°33.555 4.7 30 13.5 102600 60
2004-05-28 08:12:28 51°9.102 2°33.563 5 29 13.5 102610 60
2004-05-28 08:12:34 51°9.103 2°33.573 4.8 34 13.5 102610 60
2004-05-28 08:12:39 51°9.103 2°33.581 4.9 22 13.5 102600 61
2004-05-28 08:12:44 51°9.104 2°33.59 5.1 30 13.5 102600 60
2004-05-28 08:12:47 51°9.105 2°33.594 4.9 30 13.5 102600 60
2004-05-28 08:12:53 51°9.105 2°33.605 4.9 26 13.5 102600 59
2004-05-28 08:12:58 51°9.106 2°33.613 4.9 33 13.5 102600 59
2004-05-28 08:13:02 51°9.106 2°33.62 5 29 13.5 102600 59
2004-05-28 08:13:08 51°9.107 2°33.63 4.6 28 13.5 102600 59
2004-05-28 08:13:14 51°9.107 2°33.64 4.8 25 13.5 102610 60
2004-05-28 08:13:17 51°9.108 2°33.645 4.8 25 13.5 102610 60
2004-05-28 08:13:22 51°9.108 2°33.653 4.5 26 13.5 102610 60
2004-05-28 08:13:28 51°9.108 2°33.663 4.5 24 13.5 102610 61
2004-05-28 08:13:33 51°9.109 2°33.671 4.5 29 13.5 102610 61
2004-05-28 08:13:38 51°9.109 2°33.68 4.5 28 13.5 102610 60
2004-05-28 08:13:44 51°9.11 2°33.69 4.6 31 13.5 102610 60
2004-05-28 08:13:48 51°9.11 2°33.697 4.4 31 13.6 102600 61
2004-05-28 08:13:54 51°9.111 2°33.707 4.2 35 13.6 102600 61
2004-05-28 08:13:56 51°9.111 2°33.71 4.2 29 13.6 102600 60
2004-05-28 08:14:03 51°9.111 2°33.722 4.3 29 13.6 102610 60
2004-05-28 08:14:07 51°9.111 2°33.729 4.2 24 13.6 102610 60
2004-05-28 08:14:14 51°9.112 2°33.741 3.9 27 13.6 102610 60
2004-05-28 08:14:18 51°9.112 2°33.747 3.6 31 13.6 102610 60
2004-05-28 08:14:24 51°9.113 2°33.758 3.8 32 13.6 102610 60
2004-05-28 08:14:28 51°9.113 2°33.764 3.9 31 13.6 102610 59
2004-05-28 08:14:32 51°9.113 2°33.771 3.6 27 13.6 102610 59
2004-05-28 08:14:38 51°9.114 2°33.781 3.8 27 13.5 102610 59
2004-05-28 08:14:43 51°9.114 2°33.79 4 30 13.5 102610 59
2004-05-28 08:14:48 51°9.115 2°33.798 4.2 23 13.5 102610 59
2004-05-28 08:14:52 51°9.115 2°33.805 4.7 29 13.5 102610 59
2004-05-28 08:14:58 51°9.116 2°33.815 4.3 29 13.5 102610 59
2004-05-28 08:15:04 51°9.116 2°33.825 4.3 30 13.6 102600 60
2004-05-28 08:15:08 51°9.117 2°33.832 4.2 29 13.6 102600 60
2004-05-28 08:15:14 51°9.117 2°33.842 4.3 25 13.6 102600 60
2004-05-28 08:15:18 51°9.117 2°33.849 4.8 28 13.6 102600 61
2004-05-28 08:15:23 51°9.118 2°33.858 4.9 27 13.6 102610 61
2004-05-28 08:15:28 51°9.118 2°33.866 5.3 25 13.6 102610 61
2004-05-28 08:15:40 51°9.119 2°33.886 4.9 20 13.6 102610 61
2004-05-28 08:15:44 51°9.12 2°33.893 5.2 23 13.6 102610 62
2004-05-28 08:15:51 51°9.12 2°33.905 4.9 23 13.6 102610 62
2004-05-28 08:15:55 51°9.121 2°33.912 5 24 13.6 102600 61
2004-05-28 08:16:00 51°9.121 2°33.92 4.9 24 13.6 102600 61
2004-05-28 08:16:06 51°9.122 2°33.93 4.5 20 13.6 102600 60
2004-05-28 08:16:10 51°9.122 2°33.937 5 26 13.6 102600 60
2004-05-28 08:16:15 51°9.123 2°33.945 4.7 26 13.6 102600 60
2004-05-28 08:16:20 51°9.123 2°33.954 4.9 22 13.6 102600 60
2004-05-28 08:16:24 51°9.124 2°33.961 4.7 22 13.7 102610 59
2004-05-28 08:16:31 51°9.124 2°33.972 4.8 23 13.7 102610 59
2004-05-28 08:16:34 51°9.125 2°33.977 4.8 24 13.7 102610 59
2004-05-28 08:16:40 51°9.125 2°33.987 5.2 25 13.7 102610 59
2004-05-28 08:16:46 51°9.126 2°33.998 4.9 27 13.7 102610 59
2004-05-28 08:16:50 51°9.126 2°34.004 4.7 26 13.7 102610 59
2004-05-28 08:16:55 51°9.126 2°34.013 4.7 19 13.7 102600 59
2004-05-28 08:16:58 51°9.127 2°34.018 4.4 22 13.7 102600 59
2004-05-28 08:17:04 51°9.127 2°34.028 4.8 20 13.7 102610 58
2004-05-28 08:17:11 51°9.128 2°34.039 5 22 13.7 102610 58
2004-05-28 08:17:15 51°9.129 2°34.046 5 21 13.7 102610 58
2004-05-28 08:17:20 51°9.129 2°34.055 4.4 24 13.7 102610 58
2004-05-28 08:17:25 51°9.13 2°34.063 4.5 17 13.7 102600 62
2004-05-28 08:17:30 51°9.13 2°34.071 5 21 13.7 102600 62
2004-05-28 08:17:34 51°9.131 2°34.078 4.9 23 13.7 102600 66
2004-05-28 08:17:40 51°9.131 2°34.088 4.8 22 13.7 102600 66
2004-05-28 08:17:44 51°9.132 2°34.095 4.8 23 13.7 102610 66
2004-05-28 08:17:50 51°9.132 2°34.105 4.9 24 13.7 102610 66
2004-05-28 08:17:54 51°9.133 2°34.112 5 28 13.8 102610 65
2004-05-28 08:18:08 51°9.134 2°34.135 4.5 27 13.8 102610 65
2004-05-28 08:18:14 51°9.135 2°34.145 4.5 28 13.8 102610 62
2004-05-28 08:18:18 51°9.135 2°34.152 5.4 29 13.8 102610 62
2004-05-28 08:18:22 51°9.135 2°34.158 5.5 29 13.8 102600 61
2004-05-28 08:18:29 51°9.136 2°34.17 4.9 30 13.8 102600 61
2004-05-28 08:18:34 51°9.136 2°34.178 4.7 37 13.8 102600 61
2004-05-28 08:18:38 51°9.137 2°34.185 4.7 37 13.8 102600 61
2004-05-28 08:18:43 51°9.137 2°34.193 4.2 37 13.8 102600 61
2004-05-28 08:18:48 51°9.138 2°34.201 4.4 30 13.8 102610 61
2004-05-28 08:18:53 51°9.138 2°34.209 4.7 37 13.8 102600 61
2004-05-28 08:18:58 51°9.138 2°34.218 4.2 35 13.8 102600 61
2004-05-28 08:19:04 51°9.139 2°34.228 4.4 34 13.8 102600 61
2004-05-28 08:19:08 51°9.139 2°34.234 4.3 36 13.8 102600 58
2004-05-28 08:19:14 51°9.14 2°34.244 4.5 33 13.8 102600 58
2004-05-28 08:19:18 51°9.14 2°34.251 4.2 33 13.7 102610 56
2004-05-28 08:19:22 51°9.14 2°34.257 4 37 13.7 102610 56
2004-05-28 08:19:28 51°9.141 2°34.267 4.5 35 13.7 102610 56
2004-05-28 08:19:34 51°9.141 2°34.277 4.3 37 13.7 102610 56
2004-05-28 08:19:37 51°9.142 2°34.282 4.7 38 13.7 102600 58
2004-05-28 08:19:42 51°9.142 2°34.29 4.9 29 13.7 102600 58
2004-05-28 08:19:48 51°9.142 2°34.3 4.3 33 13.7 102610 58
2004-05-28 08:19:54 51°9.143 2°34.31 4.3 34 13.7 102610 58
2004-05-28 08:19:59 51°9.143 2°34.318 4.7 34 13.7 102600 59
2004-05-28 08:20:03 51°9.144 2°34.324 4.8 31 13.7 102600 59
2004-05-28 08:20:08 51°9.144 2°34.333 4.5 29 13.7 102610 58
2004-05-28 08:20:14 51°9.145 2°34.342 4.6 32 13.7 102600 58
2004-05-28 08:20:18 51°9.145 2°34.349 4.6 32 13.7 102600 58
2004-05-28 08:20:22 51°9.145 2°34.356 4.4 28 13.7 102600 58
2004-05-28 08:20:33 51°9.147 2°34.373 4.3 30 13.7 102610 58
2004-05-28 08:20:38 51°9.147 2°34.382 4.1 30 13.6 102600 59
2004-05-28 08:20:42 51°9.147 2°34.388 4.1 30 13.6 102600 59
2004-05-28 08:20:47 51°9.148 2°34.396 4.1 30 13.6 102610 58
2004-05-28 08:20:52 51°9.149 2°34.404 4.4 33 13.6 102610 58
2004-05-28 08:20:58 51°9.149 2°34.414 4.1 30 13.6 102610 59
2004-05-28 08:21:03 51°9.15 2°34.422 4 30 13.6 102610 59
2004-05-28 08:21:07 51°9.15 2°34.429 4.1 36 13.6 102610 58
2004-05-28 08:21:13 51°9.15 2°34.439 3.7 34 13.6 102610 58
2004-05-28 08:21:18 51°9.151 2°34.447 4 31 13.6 102610 58
2004-05-28 08:21:22 51°9.151 2°34.453 3.9 33 13.6 102610 58
2004-05-28 08:21:27 51°9.152 2°34.461 3.8 29 13.6 102610 58
2004-05-28 08:21:33 51°9.152 2°34.471 3.9 34 13.6 102610 58
2004-05-28 08:21:38 51°9.153 2°34.479 3.9 32 13.6 102610 58
2004-05-28 08:21:43 51°9.153 2°34.487 4.1 37 13.6 102610 58
2004-05-28 08:21:48 51°9.154 2°34.495 4.2 36 13.6 102610 59
2004-05-28 08:21:52 51°9.154 2°34.501 3.9 37 13.6 102610 59
2004-05-28 08:21:57 51°9.155 2°34.508 3.9 40 13.6 102600 59
2004-05-28 08:22:02 51°9.155 2°34.515 4.5 37 13.6 102600 59
2004-05-28 08:22:06 51°9.156 2°34.521 4.5 32 13.6 102600 59
2004-05-28 08:22:11 51°9.156 2°34.527 4.1 30 13.6 102600 59
2004-05-28 08:22:18 51°9.157 2°34.537 4.2 33 13.6 102610 61
2004-05-28 08:22:23 51°9.158 2°34.544 4.5 37 13.6 102610 61
2004-05-28 08:22:27 51°9.158 2°34.549 4.6 35 13.6 102610 59
2004-05-28 08:22:30 51°9.159 2°34.554 4.1 28 13.6 102610 59
2004-05-28 08:22:36 51°9.159 2°34.562 4.3 29 13.6 102610 57
2004-05-28 08:22:43 51°9.16 2°34.572 4.4 32 13.6 102610 57
2004-05-28 08:22:46 51°9.161 2°34.577 4.6 36 13.6 102610 56
2004-05-28 08:22:52 51°9.161 2°34.587 5 37 13.6 102610 56
2004-05-28 08:22:58 51°9.162 2°34.598 5.3 40 13.6 102610 56
2004-05-28 08:23:02 51°9.162 2°34.605 5.6 33 13.6 102610 56
2004-05-28 08:23:06 51°9.163 2°34.612 5.4 30 13.6 102610 56
2004-05-28 08:23:12 51°9.163 2°34.623 5.3 31 13.6 102610 56
2004-05-28 08:23:14 51°9.164 2°34.627 5.6 30 13.6 102610 59
2004-05-28 08:23:23 51°9.165 2°34.644 5.1 29 13.6 102610 59
2004-05-28 08:23:27 51°9.166 2°34.652 5.2 31 13.6 102600 61
2004-05-28 08:23:32 51°9.166 2°34.662 5.3 36 13.6 102600 61
2004-05-28 08:23:37 51°9.167 2°34.671 5.2 34 13.7 102600 58
2004-05-28 08:23:43 51°9.168 2°34.683 5.4 34 13.7 102600 58
2004-05-28 08:23:48 51°9.169 2°34.693 5.5 31 13.6 102610 56
2004-05-28 08:23:52 51°9.17 2°34.701 5.5 32 13.6 102610 56
2004-05-28 08:23:56 51°9.17 2°34.709 5.7 36 13.6 102610 56
2004-05-28 08:24:03 51°9.172 2°34.723 6.2 33 13.6 102610 56
2004-05-28 08:24:06 51°9.172 2°34.728 5.9 35 13.6 102600 54
2004-05-28 08:24:12 51°9.173 2°34.74 5.9 33 13.6 102600 54
2004-05-28 08:24:16 51°9.174 2°34.749 5.8 36 13.6 102610 54
2004-05-28 08:24:23 51°9.175 2°34.763 5.6 33 13.6 102610 54
2004-05-28 08:24:28 51°9.176 2°34.773 5.5 33 13.7 102600 55
2004-05-28 08:24:32 51°9.176 2°34.781 5.4 37 13.7 102600 55
2004-05-28 08:24:38 51°9.177 2°34.793 5.2 34 13.6 102610 54
2004-05-28 08:24:43 51°9.178 2°34.803 5.2 38 13.6 102610 54
2004-05-28 08:24:47 51°9.178 2°34.811 5.4 37 13.7 102600 54
2004-05-28 08:24:52 51°9.179 2°34.821 5.2 34 13.7 102600 54
2004-05-28 08:24:57 51°9.18 2°34.831 5.2 32 13.6 102610 53
2004-05-28 08:25:03 51°9.18 2°34.843 5.3 32 13.6 102610 53
2004-05-28 08:25:08 51°9.181 2°34.853 4.8 30 13.6 102600 53
2004-05-28 08:25:12 51°9.181 2°34.861 5.1 26 13.6 102600 53
2004-05-28 08:25:16 51°9.182 2°34.869 4.9 32 13.6 102610 53
2004-05-28 08:25:22 51°9.182 2°34.881 5 36 13.6 102610 53
2004-05-28 08:25:26 51°9.183 2°34.89 5.4 34 13.6 102610 52
2004-05-28 08:25:32 51°9.183 2°34.902 5.3 34 13.6 102610 52
2004-05-28 08:25:37 51°9.184 2°34.912 5.1 40 13.6 102610 53
2004-05-28 08:25:42 51°9.184 2°34.922 5 33 13.6 102610 53
2004-05-28 08:25:46 51°9.185 2°34.93 4.8 34 13.6 102610 55
2004-05-28 08:25:52 51°9.185 2°34.942 4.5 33 13.6 102610 55
2004-05-28 08:25:57 51°9.186 2°34.952 4.8 30 13.6 102610 52
2004-05-28 08:26:03 51°9.186 2°34.964 4.8 29 13.6 102610 52
2004-05-28 08:26:08 51°9.186 2°34.974 4.9 34 13.6 102610 53
2004-05-28 08:26:12 51°9.187 2°34.982 5.1 28 13.6 102610 53
2004-05-28 08:26:17 51°9.187 2°34.992 5.2 28 13.6 102610 53
2004-05-28 08:26:22 51°9.188 2°35.003 5.2 29 13.6 102610 53
2004-05-28 08:26:26 51°9.188 2°35.011 5.3 24 13.7 102610 54
2004-05-28 08:26:32 51°9.188 2°35.023 5.1 32 13.7 102610 54
2004-05-28 08:26:37 51°9.189 2°35.033 4.9 28 13.7 102620 55
2004-05-28 08:26:42 51°9.189 2°35.043 5.2 34 13.7 102620 55
2004-05-28 08:26:46 51°9.189 2°35.051 5.2 33 13.7 102610 54
2004-05-28 08:26:52 51°9.19 2°35.063 5.8 37 13.7 102610 54
2004-05-28 08:26:58 51°9.19 2°35.075 6 32 13.7 102610 54
2004-05-28 08:27:02 51°9.19 2°35.083 6 33 13.7 102610 54
2004-05-28 08:27:06 51°9.191 2°35.091 5.6 33 13.7 102610 54
2004-05-28 08:27:12 51°9.191 2°35.103 5.5 36 13.7 102610 54
2004-05-28 08:27:18 51°9.192 2°35.115 5.5 34 13.7 102610 54
2004-05-28 08:27:23 51°9.192 2°35.125 5.4 34 13.7 102610 54
2004-05-28 08:27:26 51°9.192 2°35.131 5.2 29 13.7 102610 55
2004-05-28 08:27:32 51°9.193 2°35.143 5.1 34 13.7 102610 55
2004-05-28 08:27:36 51°9.193 2°35.151 5.2 36 13.7 102600 55
2004-05-28 08:27:43 51°9.194 2°35.165 4.7 35 13.7 102600 55
2004-05-28 08:27:47 51°9.194 2°35.173 4.7 35 13.7 102610 56
2004-05-28 08:27:52 51°9.195 2°35.183 4.7 38 13.7 102610 56
2004-05-28 08:27:57 51°9.195 2°35.193 4.8 37 13.7 102610 55
2004-05-28 08:28:02 51°9.195 2°35.202 4.2 44 13.7 102610 55
2004-05-28 08:28:07 51°9.196 2°35.211 4.4 41 13.7 102610 55
2004-05-28 08:28:12 51°9.196 2°35.22 4.8 47 13.7 102610 55
2004-05-28 08:28:17 51°9.196 2°35.229 4.4 42 13.7 102620 55
2004-05-28 08:28:23 51°9.197 2°35.239 4.6 44 13.7 102620 55
2004-05-28 08:28:27 51°9.197 2°35.245 4.7 45 13.7 102610 57
2004-05-28 08:28:32 51°9.197 2°35.253 4.9 46 13.7 102610 57
2004-05-28 08:28:38 51°9.198 2°35.262 4.6 41 13.7 102610 54
2004-05-28 08:28:43 51°9.198 2°35.27 4.9 43 13.7 102610 54
2004-05-28 08:28:47 51°9.198 2°35.276 4.7 41 13.7 102610 54
2004-05-28 08:28:52 51°9.198 2°35.283 4.9 56 13.7 102610 54
2004-05-28 08:28:57 51°9.199 2°35.29 5.2 50 13.7 102620 55
2004-05-28 08:29:03 51°9.199 2°35.298 5.3 48 13.7 102620 55
2004-05-28 08:29:07 51°9.2 2°35.304 5.4 42 13.7 102610 56
2004-05-28 08:29:12 51°9.2 2°35.311 5 45 13.7 102610 56
2004-05-28 08:29:18 51°9.201 2°35.319 4.8 44 13.7 102610 56
2004-05-28 08:29:23 51°9.201 2°35.326 4.7 40 13.7 102610 56
2004-05-28 08:29:27 51°9.201 2°35.331 4.9 43 13.7 102610 59
2004-05-28 08:29:32 51°9.201 2°35.337 4.5 47 13.7 102610 59
2004-05-28 08:29:46 51°9.202 2°35.356 4.4 46 13.7 102620 56
2004-05-28 08:29:54 51°9.203 2°35.366 4.2 47 13.7 102620 56
2004-05-28 08:29:59 51°9.203 2°35.372 4.3 47 13.7 102620 56
2004-05-28 08:30:04 51°9.203 2°35.379 4.4 49 13.7 102610 55
2004-05-28 08:30:08 51°9.204 2°35.384 4.8 50 13.7 102610 55
2004-05-28 08:30:14 51°9.204 2°35.391 4.9 52 13.7 102620 55
2004-05-28 08:30:19 51°9.204 2°35.397 5 42 13.7 102620 55
2004-05-28 08:30:22 51°9.205 2°35.401 5.1 40 13.7 102610 56
2004-05-28 08:30:27 51°9.205 2°35.407 4.9 34 13.7 102610 56
2004-05-28 08:30:34 51°9.206 2°35.415 4.9 36 13.7 102610 56
2004-05-28 08:30:38 51°9.206 2°35.42 4.9 38 13.7 102620 57
2004-05-28 08:30:44 51°9.207 2°35.428 4.4 31 13.7 102620 57
2004-05-28 08:30:48 51°9.207 2°35.433 4.3 32 13.7 102610 59
2004-05-28 08:30:54 51°9.207 2°35.44 4.4 38 13.7 102610 59
2004-05-28 08:30:58 51°9.208 2°35.445 4.4 42 13.7 102620 59
2004-05-28 08:31:02 51°9.208 2°35.45 4.4 42 13.7 102610 57
2004-05-28 08:31:06 51°9.208 2°35.454 4 43 13.7 102610 57
2004-05-28 08:31:13 51°9.209 2°35.463 3.4 39 13.7 102610 56
2004-05-28 08:31:19 51°9.209 2°35.47 3.5 37 13.7 102610 56
2004-05-28 08:31:23 51°9.21 2°35.475 3.9 30 13.7 102610 56
2004-05-28 08:31:28 51°9.21 2°35.481 3.9 34 13.7 102620 56
2004-05-28 08:31:34 51°9.211 2°35.488 4 36 13.7 102620 56
2004-05-28 08:31:38 51°9.211 2°35.493 4 36 13.7 102620 56
2004-05-28 08:31:43 51°9.211 2°35.499 3.7 36 13.7 102610 56
2004-05-28 08:31:47 51°9.211 2°35.504 3.8 33 13.7 102610 56
2004-05-28 08:31:54 51°9.212 2°35.512 4.2 34 13.7 102610 56
2004-05-28 08:31:59 51°9.212 2°35.519 3.9 34 13.7 102620 57
2004-05-28 08:32:04 51°9.213 2°35.525 4 39 13.7 102620 57
2004-05-28 08:32:07 51°9.213 2°35.529 4.3 40 13.7 102620 57
2004-05-28 08:32:14 51°9.213 2°35.537 5 39 13.7 102620 58
2004-05-28 08:32:19 51°9.213 2°35.544 4.5 42 13.7 102620 58
2004-05-28 08:32:24 51°9.214 2°35.55 4.3 54 13.7 102620 57
2004-05-28 08:32:28 51°9.214 2°35.555 4.1 54 13.7 102620 57
2004-05-28 08:32:34 51°9.215 2°35.562 4.2 52 13.7 102620 57
2004-05-28 08:32:38 51°9.215 2°35.567 4.3 49 13.7 102620 57
2004-05-28 08:32:41 51°9.215 2°35.571 4.8 45 13.7 102610 58
2004-05-28 08:32:48 51°9.216 2°35.58 4.1 42 13.7 102610 58
2004-05-28 08:32:54 51°9.216 2°35.587 4.4 46 13.7 102620 56
2004-05-28 08:32:58 51°9.216 2°35.592 4.2 52 13.7 102620 56
2004-05-28 08:33:02 51°9.216 2°35.597 4.7 51 13.8 102610 59
2004-05-28 08:33:07 51°9.217 2°35.604 4.5 53 13.8 102610 59
2004-05-28 08:33:13 51°9.217 2°35.611 4.2 50 13.7 102620 56
2004-05-28 08:33:18 51°9.218 2°35.618 4.2 43 13.7 102620 56
2004-05-28 08:33:24 51°9.218 2°35.625 4 50 13.8 102620 58
2004-05-28 08:33:26 51°9.218 2°35.628 4 51 13.8 102620 58
2004-05-28 08:33:34 51°9.219 2°35.638 4.5 48 13.7 102620 56
2004-05-28 08:33:38 51°9.219 2°35.643 4.5 50 13.7 102620 56
2004-05-28 08:33:43 51°9.219 2°35.649 4.7 50 13.7 102620 56
2004-05-28 08:33:47 51°9.219 2°35.654 4.3 52 13.7 102620 56
2004-05-28 08:33:54 51°9.22 2°35.663 4.1 44 13.7 102620 56
2004-05-28 08:33:58 51°9.22 2°35.668 4.1 39 13.7 102620 56
2004-05-28 08:34:04 51°9.22 2°35.675 3.8 40 13.7 102620 56
2004-05-28 08:34:08 51°9.22 2°35.68 3.5 43 13.7 102620 54
2004-05-28 08:34:14 51°9.22 2°35.687 4.1 42 13.7 102620 54
2004-05-28 08:34:18 51°9.22 2°35.692 3.8 42 13.7 102620 54
2004-05-28 08:34:23 51°9.22 2°35.698 3.7 37 13.7 102620 54
2004-05-28 08:34:28 51°9.22 2°35.705 3.6 36 13.7 102620 55
2004-05-28 08:34:34 51°9.22 2°35.712 3.3 37 13.7 102620 56
2004-05-28 08:34:37 51°9.22 2°35.716 3.3 43 13.7 102620 56
2004-05-28 08:34:48 51°9.22 2°35.73 3.1 35 13.7 102620 54
2004-05-28 08:34:54 51°9.221 2°35.737 3.1 40 13.7 102620 54
2004-05-28 08:34:58 51°9.221 2°35.741 3.1 40 13.7 102620 54
2004-05-28 08:35:03 51°9.221 2°35.747 3.1 48 13.7 102620 54
2004-05-28 08:35:08 51°9.221 2°35.753 3.3 50 13.7 102620 54
2004-05-28 08:35:14 51°9.221 2°35.759 3.3 49 13.7 102620 56
2004-05-28 08:35:17 51°9.221 2°35.762 3.3 50 13.7 102620 56
2004-05-28 08:35:23 51°9.221 2°35.769 3.4 46 13.7 102620 56
2004-05-28 08:35:28 51°9.221 2°35.774 3.7 48 13.8 102620 58
2004-05-28 08:35:34 51°9.222 2°35.78 3.5 47 13.8 102630 55
2004-05-28 08:35:38 51°9.222 2°35.784 3.7 48 13.8 102630 55
2004-05-28 08:35:42 51°9.222 2°35.788 3.4 51 13.8 102620 57
2004-05-28 08:35:47 51°9.222 2°35.793 3.3 52 13.8 102620 57
2004-05-28 08:35:53 51°9.222 2°35.799 3.3 53 13.8 102620 55
2004-05-28 08:35:58 51°9.222 2°35.804 3.4 53 13.8 102620 55
2004-05-28 08:36:03 51°9.223 2°35.809 3.6 55 13.8 102620 55
2004-05-28 08:36:08 51°9.224 2°35.815 3.7 48 13.8 102620 54
2004-05-28 08:36:14 51°9.225 2°35.825 3.7 52 13.8 102620 55
2004-05-28 08:36:18 51°9.226 2°35.831 3.8 52 13.8 102620 55
2004-05-28 08:36:22 51°9.228 2°35.838 3.9 58 13.8 102620 54
2004-05-28 08:36:27 51°9.23 2°35.847 3.4 59 13.8 102620 54
2004-05-28 08:36:33 51°9.234 2°35.858 3.2 63 13.8 102620 53
2004-05-28 08:36:38 51°9.238 2°35.867 3 58 13.8 102620 53
2004-05-28 08:36:42 51°9.242 2°35.874 3.3 60 13.8 102620 53
2004-05-28 08:36:48 51°9.249 2°35.884 2.7 69 13.8 102620 53
2004-05-28 08:36:54 51°9.256 2°35.892 2.5 72 13.8 102620 53
2004-05-28 08:36:58 51°9.262 2°35.897 2.1 71 13.8 102620 54
2004-05-28 08:37:02 51°9.268 2°35.901 1.1 68 13.8 102620 56
2004-05-28 08:37:06 51°9.275 2°35.905 2 56 13.8 102620 56
2004-05-28 08:37:13 51°9.288 2°35.909 2.2 33 13.8 102620 54
2004-05-28 08:37:19 51°9.301 2°35.911 2.3 31 13.8 102620 54
2004-05-28 08:37:24 51°9.313 2°35.911 2.6 30 13.8 102620 54
2004-05-28 08:37:28 51°9.323 2°35.911 3.1 21 13.8 102620 54
2004-05-28 08:37:34 51°9.339 2°35.91 3.8 20 13.8 102620 54
2004-05-28 08:37:38 51°9.351 2°35.908 4 21 13.8 102620 54
2004-05-28 08:37:42 51°9.364 2°35.906 3.8 20 13.8 102620 55
2004-05-28 08:37:46 51°9.377 2°35.903 4.5 16 13.8 102620 55
2004-05-28 08:37:54 51°9.405 2°35.896 4.6 15 13.8 102620 55
2004-05-28 08:37:59 51°9.423 2°35.891 4.7 14 13.8 102620 55
2004-05-28 08:38:03 51°9.437 2°35.887 5.2 17 13.8 102620 55
2004-05-28 08:38:08 51°9.456 2°35.882 5.3 14 13.8 102620 54
2004-05-28 08:38:14 51°9.479 2°35.877 5.2 10 13.8 102620 54
2004-05-28 08:38:18 51°9.494 2°35.873 4.9 11 13.8 102620 54
2004-05-28 08:38:23 51°9.513 2°35.868 5.5 16 13.8 102620 54
2004-05-28 08:38:28 51°9.533 2°35.863 5.3 15 13.8 102620 55
2004-05-28 08:38:34 51°9.556 2°35.857 5.3 16 13.8 102620 55
2004-05-28 08:38:39 51°9.575 2°35.852 5 15 13.8 102620 55
2004-05-28 08:38:44 51°9.594 2°35.847 4.9 9 13.8 102620 55
2004-05-28 08:38:49 51°9.614 2°35.843 5.1 11 13.8 102630 55
2004-05-28 08:38:53 51°9.63 2°35.839 5.3 11 13.8 102630 55
2004-05-28 08:38:58 51°9.649 2°35.835 5.8 14 13.9 102620 54
2004-05-28 08:39:04 51°9.673 2°35.829 5.9 16 13.9 102620 54
2004-05-28 08:39:06 51°9.68 2°35.827 5.6 19 13.9 102620 54
2004-05-28 08:39:14 51°9.712 2°35.82 5.2 16 13.9 102620 55
2004-05-28 08:39:19 51°9.732 2°35.816 5.1   13.9 102620 55
2004-05-28 08:39:24 51°9.751 2°35.811 5 15 13.9 102620 55
2004-05-28 08:39:28 51°9.767 2°35.808 5.5 19 13.9 102620 55
2004-05-28 08:39:34 51°9.791 2°35.803 5.5 19 13.9 102620 54
2004-05-28 08:39:38 51°9.807 2°35.8 5.3 20 13.9 102620 54
2004-05-28 08:39:42 51°9.823 2°35.796 5.9 25 13.9 102620 54
2004-05-28 08:39:48 51°9.847 2°35.792 5.5 26 13.9 102620 54
2004-05-28 08:39:54 51°9.871 2°35.787 5.5 23 13.9 102610 55
2004-05-28 08:40:06 51°9.919 2°35.779 5.5 24 13.9 102610 55
2004-05-28 08:40:14 51°9.951 2°35.773 5.5 25 14 102620 55
2004-05-28 08:40:19 51°9.971 2°35.769 5.4 27 14 102620 55
2004-05-28 08:40:24 51°9.991 2°35.766 5.3 26 14 102620 55
2004-05-28 08:40:28 51°10.007 2°35.763 5.1 27 14 102620 54
2004-05-28 08:40:34 51°10.031 2°35.758 5.2 28 14 102620 54
2004-05-28 08:40:38 51°10.047 2°35.756 5.4 25 14 102620 55
2004-05-28 08:40:44 51°10.071 2°35.753 5.9 32 14 102620 55
2004-05-28 08:40:48 51°10.087 2°35.753 5.8 27 14 102620 56
2004-05-28 08:40:54 51°10.111 2°35.753 5.9 31 14 102620 56
2004-05-28 08:40:59 51°10.131 2°35.755 6.1 28 14 102620 56
2004-05-28 08:41:04 51°10.151 2°35.758 6.3 29 14 102620 56
2004-05-28 08:41:06 51°10.159 2°35.76 6.7 25 14 102620 56
2004-05-28 08:41:13 51°10.186 2°35.765 7.3 25 14 102620 56
2004-05-28 08:41:19 51°10.21 2°35.769 6.8 25 14 102620 56
2004-05-28 08:41:23 51°10.226 2°35.773 6.8 25 14 102610 55
2004-05-28 08:41:29 51°10.249 2°35.778 6.6 26 14 102610 55
2004-05-28 08:41:34 51°10.269 2°35.782 6.6 24 14 102610 55
2004-05-28 08:41:39 51°10.289 2°35.786 6.6 27 14 102610 55
2004-05-28 08:41:43 51°10.305 2°35.789 6.7 24 14 102620 54
2004-05-28 08:41:48 51°10.325 2°35.793 6.5 21 14 102620 54
2004-05-28 08:41:54 51°10.348 2°35.798 7.1 21 14 102620 54
2004-05-28 08:41:58 51°10.364 2°35.801 7 25 14 102620 54
2004-05-28 08:42:02 51°10.38 2°35.804 7.1 26 14 102620 55
2004-05-28 08:42:07 51°10.4 2°35.808 7.3 24 14 102620 55
2004-05-28 08:42:13 51°10.424 2°35.813 7.3 21 14 102620 55
2004-05-28 08:42:19 51°10.448 2°35.818 7.1 20 14 102620 55
2004-05-28 08:42:23 51°10.464 2°35.821 7.1 22 14 102620 55
2004-05-28 08:42:28 51°10.484 2°35.825 7.1 27 14 102620 56
2004-05-28 08:42:34 51°10.507 2°35.83 6.8 25 14 102620 56
2004-05-28 08:42:38 51°10.523 2°35.834 6.5 23 14 102610 56
2004-05-28 08:42:44 51°10.547 2°35.842 6.8 27 14 102610 56
2004-05-28 08:42:48 51°10.562 2°35.849 7.3 25 14 102610 56
2004-05-28 08:42:54 51°10.585 2°35.863 7.8 24 14 102610 56
2004-05-28 08:42:58 51°10.599 2°35.873 7.9 24 14 102620 56
2004-05-28 08:43:04 51°10.621 2°35.892 7.9 19 14 102620 56
2004-05-28 08:43:08 51°10.634 2°35.905 8.9 21 14 102610 56
2004-05-28 08:43:14 51°10.654 2°35.928 8.8 23 14 102620 58
2004-05-28 08:43:19 51°10.669 2°35.949 8.8 23 14 102620 58
2004-05-28 08:43:22 51°10.678 2°35.962 8.2 20 14 102620 58
2004-05-28 08:43:27 51°10.692 2°35.985 8.9 17 14 102620 58
2004-05-28 08:43:34 51°10.71 2°36.018 9.3 17 14 102620 58
2004-05-28 08:43:38 51°10.721 2°36.037 8.6 18 14 102610 59
2004-05-28 08:43:43 51°10.734 2°36.062 8.5 18 14 102600 58
2004-05-28 08:43:46 51°10.741 2°36.077 8.7 20 14 102600 58
2004-05-28 08:43:54 51°10.761 2°36.117 8.3 19 14 102600 58
2004-05-28 08:43:59 51°10.775 2°36.141 8.8 21 14 102610 59
2004-05-28 08:44:02 51°10.783 2°36.155 8.9 21 14 102610 58
2004-05-28 08:44:06 51°10.794 2°36.173 8.9 19 14 102610 58
2004-05-28 08:44:14 51°10.817 2°36.21 8.6 22 14 102610 58
2004-05-28 08:44:18 51°10.828 2°36.228 8.7 17 14 102620 57
2004-05-28 08:44:24 51°10.846 2°36.255 8.7 15 14 102620 57
2004-05-28 08:44:28 51°10.857 2°36.273 8.8 18 14 102610 58
2004-05-28 08:44:34 51°10.875 2°36.3 9 20 14 102610 58
2004-05-28 08:44:37 51°10.883 2°36.313 8.7 17 14 102610 58
2004-05-28 08:44:43 51°10.901 2°36.34 8.9 20 14 102610 58
2004-05-28 08:44:49 51°10.918 2°36.367 8.7 23 14 102610 58
2004-05-28 08:44:54 51°10.933 2°36.389 9.7 22 14 102610 57
2004-05-28 08:44:58 51°10.944 2°36.407 9 23 14 102610 57
2004-05-28 08:45:02 51°10.956 2°36.425 8.8 22 14 102610 57
2004-05-28 08:45:09 51°10.976 2°36.456 9 24 14 102610 57
2004-05-28 08:45:14 51°10.99 2°36.479 8.6 20 14 102620 57
2004-05-28 08:45:18 51°11.002 2°36.497 9.1 22 14 102620 57
2004-05-28 08:45:23 51°11.016 2°36.519 9 20 14 102610 57
2004-05-28 08:45:27 51°11.028 2°36.537 8.8 22 14 102610 57
2004-05-28 08:45:34 51°11.048 2°36.568 8.7 19 14 102600 57
2004-05-28 08:45:39 51°11.062 2°36.591 8.9 20 14 102600 57
2004-05-28 08:45:44 51°11.077 2°36.613 8.7 22 14 102610 56
2004-05-28 08:45:48 51°11.088 2°36.631 9.1 22 14 102610 56
2004-05-28 08:45:53 51°11.103 2°36.653 9.2 21 14 102600 56
2004-05-28 08:45:58 51°11.117 2°36.675 8.9 19 14 102600 56
2004-05-28 08:46:04 51°11.134 2°36.702 8.6 20 14 102600 56
2004-05-28 08:46:08 51°11.146 2°36.72 8.2 18 14 102610 57
2004-05-28 08:46:14 51°11.163 2°36.747 8.2 21 14 102600 56
2004-05-28 08:46:19 51°11.177 2°36.77 8.2 20 14 102600 56
2004-05-28 08:46:24 51°11.192 2°36.792 8.8 21 14 102610 55
2004-05-28 08:46:28 51°11.203 2°36.81 8.8 22 14 102610 55
2004-05-28 08:46:34 51°11.22 2°36.837 8.9 19 14 102610 55
2004-05-28 08:46:38 51°11.231 2°36.855 8.6 21 14 102610 55
2004-05-28 08:46:43 51°11.245 2°36.877 8.5 21 14.1 102610 55
2004-05-28 08:46:49 51°11.263 2°36.903 8.5 20 14.1 102610 55
2004-05-28 08:46:54 51°11.277 2°36.925 9 20 14 102620 56
2004-05-28 08:46:58 51°11.289 2°36.943 8.9 23 14 102620 56
2004-05-28 08:47:04 51°11.306 2°36.969 9.3 22 14 102620 56
2004-05-28 08:47:08 51°11.317 2°36.987 9.1 23 14.1 102610 56
2004-05-28 08:47:14 51°11.334 2°37.014 8.9 23 14.1 102610 56
2004-05-28 08:47:19 51°11.348 2°37.036 9.1 23 14 102620 56
2004-05-28 08:47:23 51°11.36 2°37.054 9 24 14.1 102610 57
2004-05-28 08:47:29 51°11.377 2°37.08 9.7 23 14.1 102610 57
2004-05-28 08:47:33 51°11.388 2°37.098 9.2 23 14.1 102600 55
2004-05-28 08:47:38 51°11.402 2°37.12 8.6 23 14.1 102600 55
2004-05-28 08:47:42 51°11.414 2°37.138 8.4 24 14.1 102610 55
2004-05-28 08:47:46 51°11.425 2°37.156 8.7 18 14.1 102610 55
2004-05-28 08:47:54 51°11.448 2°37.191 9.1 21 14 102600 54
2004-05-28 08:47:58 51°11.459 2°37.209 9.3 23 14 102600 54
2004-05-28 08:48:04 51°11.477 2°37.235 9.2 22 14.1 102610 54
2004-05-28 08:48:08 51°11.488 2°37.253 8.3 21 14.1 102610 54
2004-05-28 08:48:14 51°11.505 2°37.28 9.6 23 14.1 102610 54
2004-05-28 08:48:19 51°11.52 2°37.302 8.4 22 14 102610 54
2004-05-28 08:48:23 51°11.531 2°37.32 8.6 21 14.1 102610 54
2004-05-28 08:48:28 51°11.545 2°37.342 9.4 20 14.1 102610 54
2004-05-28 08:48:34 51°11.563 2°37.368 9.1 23 14.1 102610 54
2004-05-28 08:48:38 51°11.574 2°37.386 8.7 22 14.1 102610 54
2004-05-28 08:48:42 51°11.585 2°37.404 9 23 14.1 102610 54
2004-05-28 08:48:48 51°11.602 2°37.431 8.6 24 14.1 102610 54
2004-05-28 08:48:53 51°11.616 2°37.454 8.3 25 14.1 102620 54
2004-05-28 08:48:59 51°11.633 2°37.482 8.2 23 14.1 102620 54
2004-05-28 08:49:03 51°11.643 2°37.5 8.1 25 14.1 102610 53
2004-05-28 08:49:08 51°11.657 2°37.524 8.1 24 14.1 102610 53
2004-05-28 08:49:14 51°11.673 2°37.552 7.9 23 14.1 102620 54
2004-05-28 08:49:18 51°11.683 2°37.57 7.6 22 14.1 102620 54
2004-05-28 08:49:22 51°11.694 2°37.589 8.2 22 14.1 102610 54
2004-05-28 08:49:26 51°11.705 2°37.607 7.4 20 14.1 102610 54
2004-05-28 08:49:34 51°11.727 2°37.644 8.4 24 14.1 102610 55
2004-05-28 08:49:38 51°11.737 2°37.664 8.8 22 14.1 102610 55
2004-05-28 08:49:43 51°11.751 2°37.687 8.7 20 14.1 102620 56
2004-05-28 08:49:49 51°11.767 2°37.715 8.6 22 14.1 102620 56
2004-05-28 08:49:53 51°11.778 2°37.733 8.1 23 14.1 102620 56
2004-05-28 08:49:59 51°11.794 2°37.761 8.2 23 14.1 102630 56
2004-05-28 08:50:03 51°11.805 2°37.78 8.8 21 14.1 102620 54
2004-05-28 08:50:08 51°11.818 2°37.804 9.1 20 14.1 102620 54
2004-05-28 08:50:14 51°11.834 2°37.832 8.9 20 14.1 102620 53
2004-05-28 08:50:18 51°11.845 2°37.851 8.8 17 14.1 102620 53
2004-05-28 08:50:24 51°11.861 2°37.879 9 18 14.1 102620 54
2004-05-28 08:50:28 51°11.872 2°37.897 8.9 17 14.1 102620 54
2004-05-28 08:50:33 51°11.886 2°37.921 8.8 20 14.1 102610 54
2004-05-28 08:50:38 51°11.899 2°37.944 8.5 17 14.1 102610 54
2004-05-28 08:50:43 51°11.912 2°37.968 8.5 18 14.1 102620 54
2004-05-28 08:50:48 51°11.926 2°37.991 8.7 16 14.1 102620 54
2004-05-28 08:50:54 51°11.942 2°38.019 8.6 15 14.1 102610 53
2004-05-28 08:50:59 51°11.956 2°38.043 8.5 18 14.1 102610 53
2004-05-28 08:51:03 51°11.967 2°38.061 9.2 17 14.1 102620 54
2004-05-28 08:51:07 51°11.978 2°38.08 9 22 14.1 102620 54
2004-05-28 08:51:14 51°11.996 2°38.113 8.5 19 14.1 102620 53
2004-05-28 08:51:18 51°12.007 2°38.132 8.7 23 14.1 102620 53
2004-05-28 08:51:24 51°12.024 2°38.16 8.1 21 14.1 102620 54
2004-05-28 08:51:26 51°12.029 2°38.169 8.3 20 14.1 102620 54
2004-05-28 08:51:34 51°12.051 2°38.207 8.2 20 14.1 102620 54
2004-05-28 08:51:38 51°12.061 2°38.226 8 22 14.1 102620 54
2004-05-28 08:51:44 51°12.077 2°38.254 8.3 23 14.1 102620 54
2004-05-28 08:51:48 51°12.088 2°38.273 8.6 19 14.1 102620 54
2004-05-28 08:51:54 51°12.104 2°38.301 8.7 19 14.1 102620 55
2004-05-28 08:51:58 51°12.115 2°38.32 9 17 14.1 102620 55
2004-05-28 08:52:04 51°12.131 2°38.348 8.6 20 14.1 102620 55
2004-05-28 08:52:06 51°12.136 2°38.358 9.1 22 14.1 102620 55
2004-05-28 08:52:14 51°12.158 2°38.396 8.9 24 14.1 102620 54
2004-05-28 08:52:17 51°12.166 2°38.41 8.7 22 14.1 102620 54
2004-05-28 08:52:24 51°12.185 2°38.442 9.1 24 14.1 102620 54
2004-05-28 08:52:27 51°12.193 2°38.457 9 24 14.1 102620 55
2004-05-28 08:52:34 51°12.212 2°38.489 9.1 23 14.1 102620 55
2004-05-28 08:52:47 51°12.248 2°38.55 8.7 26 14.1 102620 55
2004-05-28 08:52:54 51°12.267 2°38.583 9.4 20 14.1 102620 55
2004-05-28 08:52:59 51°12.28 2°38.606 9.4 24 14.1 102620 55
2004-05-28 08:53:03 51°12.291 2°38.625 9.1 21 14.1 102610 54
2004-05-28 08:53:08 51°12.305 2°38.649 8.9 22 14.1 102610 54
2004-05-28 08:53:14 51°12.321 2°38.677 9.7 18 14.1 102620 55
2004-05-28 08:53:18 51°12.331 2°38.696 9.2 18 14.1 102620 55
2004-05-28 08:53:22 51°12.342 2°38.715 9.3 19 14.1 102610 55
2004-05-28 08:53:26 51°12.353 2°38.734 9.3 18 14.1 102610 55
2004-05-28 08:53:34 51°12.375 2°38.771 9 21 14.1 102620 56
2004-05-28 08:53:39 51°12.388 2°38.795 8.5 16 14.1 102620 56
2004-05-28 08:53:44 51°12.402 2°38.819 8.6 20 14.2 102620 58
2004-05-28 08:53:49 51°12.415 2°38.842 8.6 20 14.2 102620 58
2004-05-28 08:53:54 51°12.429 2°38.866 8.9 22 14.1 102620 57
2004-05-28 08:53:58 51°12.44 2°38.885 8.7 22 14.1 102620 57
2004-05-28 08:54:02 51°12.451 2°38.903 8.5 22 14.1 102610 57
2004-05-28 08:54:07 51°12.465 2°38.926 8.1 22 14.1 102610 57
2004-05-28 08:54:13 51°12.481 2°38.955 8.4 21 14.1 102620 56
2004-05-28 08:54:19 51°12.497 2°38.983 8.7   14.1 102620 56
2004-05-28 08:54:24 51°12.511 2°39.006 8.8 19 14.1 102610 55
2004-05-28 08:54:28 51°12.521 2°39.025 7.9 23 14.1 102610 55
2004-05-28 08:54:34 51°12.538 2°39.053 7.8 21 14.1 102620 56
2004-05-28 08:54:38 51°12.549 2°39.072 8.5 15 14.1 102620 56
2004-05-28 08:54:42 51°12.56 2°39.091 8.6 18 14.1 102620 57
2004-05-28 08:54:49 51°12.579 2°39.124 8.7 16 14.1 102620 57
2004-05-28 08:54:54 51°12.592 2°39.147 8.9 19 14.1 102620 56
2004-05-28 08:54:59 51°12.606 2°39.17 8.7 17 14.1 102620 56
2004-05-28 08:55:04 51°12.62 2°39.194 8.6 16 14.1 102620 55
2004-05-28 08:55:07 51°12.628 2°39.208 7.8 17 14.1 102620 55
2004-05-28 08:55:14 51°12.647 2°39.241 8.2 16 14.1 102610 56
2004-05-28 08:55:18 51°12.658 2°39.259 7.6 16 14.1 102610 56
2004-05-28 08:55:22 51°12.668 2°39.278 8.1 16 14.1 102620 56
2004-05-28 08:55:27 51°12.682 2°39.302 8 16 14.1 102620 56
2004-05-28 08:55:34 51°12.701 2°39.335 7.8 15 14.1 102620 56
2004-05-28 08:55:38 51°12.712 2°39.353 8.2 15 14.1 102630 55
2004-05-28 08:55:44 51°12.728 2°39.381 8.1 18 14.1 102630 55
2004-05-28 08:55:48 51°12.739 2°39.4 8.5 15 14.1 102630 55
2004-05-28 08:55:54 51°12.755 2°39.429 8.3 14 14.1 102640 55
2004-05-28 08:55:58 51°12.766 2°39.448 7.8 18 14.1 102640 55